Location: Newark
(33.9035°S, 18.4112°E)
Time: 10:45:49
(UTC+00:00)

STARLINK-1121 - Pass Details

Date: 21 January 2020
Orbit: 532 x 534 km, 53.0° (Epoch: 18 February)

Event Time Altitude Azimuth Distance (km) Brightness Sun altitude
Rises 12:53:09 0° 273° (W) 2,669 7.5 60.9°
Enters shadow 13:23:02 -48° 33° (NNE) 9,927 9.5 55.0°
Exits shadow 13:58:34 -56° 189° (S) 10,960 9.8 47.7°
